Weather History for Edinburgh Airport, United Kingdom

Change the Weather History Date:

Friday, March 22, 2013

  Actual Average Record
Temperature  
Mean Temperature 34 °F -  
Max Temperature 35 °F 51 °F 60 °F (2005)
Min Temperature 33 °F 37 °F 23 °F (2006)
Degree Days  
Heating Degree Days 31    
Moisture  
Dew Point 28 °F    
Average Humidity 76    
Maximum Humidity 81    
Minimum Humidity 70    
Precipitation  
Precipitation 0.00 in 0.06 in - ()
Sea Level Pressure  
Sea Level Pressure 30.00 in    
Wind  
Wind Speed 19 mph ()    
Max Wind Speed 26 mph    
Max Gust Speed 38 mph    
Visibility 6.1 miles    
Events Rain , Snow    
Averages and records for this station are not official NWS values.
T = Trace of Precipitation, MM = Missing Value Source: Averaged Metar Reports

Daily Weather History Graph

Daily Weather History Graph

Search for Another Location

Airport:

Trip Planner

Search our weather history database for the weather conditions in past years. The results will help you decide how hot, cold, wet, or windy it might be!

Date:

Astronomy

Mar. 22, 2013 Rise Set
Actual Time 6:10 AM GMT 6:31 PM GMT
Civil Twilight 5:33 AM GMT 7:08 PM GMT
Nautical Twilight 4:48 AM GMT 7:53 PM GMT
Astronomical Twilight 4:01 AM GMT 8:40 PM GMT
Moon 12:59 PM GMT (3/22) 3:49 AM GMT (3/22)
Length of Visible Light 13h 35m
Length of Day
12h 21m
Waxing Gibbous, 75% of the Moon is Illuminated
Mar 22
Waxing Gibbous
Mar 27
Full
Apr 3
Last Quarter
Apr 10
New
Apr 18
First Quarter

Hourly Weather History & Observations

Time (GMT) Temp. Windchill Dew Point Humidity Pressure Visibility Wind Dir Wind Speed Gust Speed Precip Events Conditions
12:20 AM 35.6 °F 25.9 °F 26.6 °F 70% 30.04 in 6.2 mi East 16.1 mph - N/A   Overcast
12:50 AM 35.6 °F 25.9 °F 26.6 °F 70% 30.04 in 6.2 mi East 16.1 mph - N/A   Overcast
1:20 AM 35.6 °F 26.6 °F 28.4 °F 75% 30.01 in 6.2 mi East 13.8 mph - N/A   Overcast
1:50 AM 35.6 °F 26.2 °F 30.2 °F 81% 30.01 in 6.2 mi East 15.0 mph - N/A   Overcast
2:20 AM 35.6 °F 26.6 °F 30.2 °F 81% 30.01 in 6.2 mi East 13.8 mph - N/A   Overcast
2:50 AM 35.6 °F 25.9 °F 30.2 °F 81% 30.01 in 6.2 mi East 16.1 mph - N/A   Overcast
3:20 AM 35.6 °F 24.2 °F 28.4 °F 75% 30.01 in 6.2 mi East 21.9 mph - N/A   Overcast
3:50 AM 35.6 °F 24.8 °F 28.4 °F 75% 30.01 in 6.2 mi East 19.6 mph - N/A   Overcast
4:20 AM 35.6 °F 24.5 °F 28.4 °F 75% 30.01 in 6.2 mi East 20.7 mph - N/A   Overcast
4:50 AM 35.6 °F 24.5 °F 28.4 °F 75% 29.98 in 6.2 mi East 20.7 mph - N/A   Overcast
5:20 AM 35.6 °F 24.2 °F 28.4 °F 75% 29.98 in 6.2 mi East 21.9 mph - N/A   Overcast
5:50 AM 33.8 °F 22.5 °F 28.4 °F 81% 29.98 in 6.2 mi East 19.6 mph - N/A Snow Light Snow
6:20 AM 33.8 °F 21.9 °F 28.4 °F 81% 29.98 in 6.2 mi East 21.9 mph - N/A   Overcast
6:50 AM 33.8 °F 21.9 °F 28.4 °F 81% 29.98 in 6.2 mi East 21.9 mph 33.4 mph N/A   Overcast
7:20 AM 35.6 °F 24.5 °F 28.4 °F 75% 29.98 in 6.2 mi East 20.7 mph - N/A   Overcast
7:50 AM 35.6 °F 24.2 °F 28.4 °F 75% 29.98 in 6.2 mi East 21.9 mph 33.4 mph N/A   Overcast
8:20 AM 35.6 °F 23.7 °F 26.6 °F 70% 30.01 in 6.2 mi East 24.2 mph - N/A   Mostly Cloudy
8:50 AM 35.6 °F 24.2 °F 26.6 °F 70% 30.01 in 6.2 mi East 21.9 mph - N/A   Mostly Cloudy
9:20 AM 35.6 °F 24.0 °F 26.6 °F 70% 29.98 in 6.2 mi East 23.0 mph - N/A   Mostly Cloudy
9:50 AM 35.6 °F 24.0 °F 26.6 °F 70% 29.98 in 6.2 mi East 23.0 mph - N/A   Mostly Cloudy
10:20 AM 35.6 °F 24.0 °F 28.4 °F 75% 29.98 in 6.2 mi East 23.0 mph - N/A   Mostly Cloudy
10:50 AM 35.6 °F 23.7 °F 28.4 °F 75% 29.98 in 6.2 mi East 24.2 mph - N/A   Overcast
11:20 AM 35.6 °F 23.2 °F 26.6 °F 70% 29.98 in 6.2 mi East 26.5 mph 38.0 mph N/A   Mostly Cloudy
11:50 AM 35.6 °F 23.4 °F 28.4 °F 75% 29.98 in 6.2 mi East 25.3 mph - N/A   Mostly Cloudy
12:20 PM 35.6 °F 23.7 °F 28.4 °F 75% 29.98 in 6.2 mi East 24.2 mph - N/A   Mostly Cloudy
12:50 PM 35.6 °F 24.2 °F 28.4 °F 75% 29.98 in 6.2 mi East 21.9 mph - N/A   Mostly Cloudy
1:20 PM 35.6 °F 24.0 °F 28.4 °F 75% 29.98 in 6.2 mi East 23.0 mph 34.5 mph N/A   Mostly Cloudy
1:50 PM 35.6 °F 24.0 °F 28.4 °F 75% 29.98 in 6.2 mi East 23.0 mph - N/A   Mostly Cloudy
2:20 PM 35.6 °F 24.5 °F 28.4 °F 75% 29.98 in 6.2 mi East 20.7 mph - N/A   Mostly Cloudy
2:50 PM 35.6 °F 24.2 °F 28.4 °F 75% 29.98 in 6.2 mi East 21.9 mph - N/A   Mostly Cloudy
3:20 PM 35.6 °F 23.7 °F 26.6 °F 70% 29.98 in 6.2 mi East 24.2 mph 38.0 mph N/A   Mostly Cloudy
3:50 PM 35.6 °F 24.2 °F 28.4 °F 75% 29.98 in 6.2 mi East 21.9 mph 33.4 mph N/A   Overcast
4:20 PM 35.6 °F 24.2 °F 28.4 °F 75% 29.98 in 5.0 mi East 21.9 mph - N/A   Overcast
4:50 PM 35.6 °F 24.0 °F 30.2 °F 81% 29.98 in 6.2 mi East 23.0 mph 35.7 mph N/A   Overcast
5:20 PM 35.6 °F 24.0 °F 30.2 °F 81% 29.98 in 3.7 mi East 23.0 mph - N/A Rain Rain
5:50 PM 35.6 °F 23.7 °F 28.4 °F 75% 29.98 in 6.2 mi East 24.2 mph 35.7 mph N/A   Overcast
6:20 PM 35.6 °F 23.2 °F 28.4 °F 75% 30.01 in 6.2 mi East 26.5 mph - N/A   Overcast
6:50 PM 33.8 °F 21.6 °F 28.4 °F 81% 30.01 in 6.2 mi East 23.0 mph - N/A   Mostly Cloudy
7:20 PM 33.8 °F 21.6 °F 28.4 °F 81% 30.01 in 6.2 mi East 23.0 mph - N/A Snow Light Snow
7:50 PM 33.8 °F 21.3 °F 28.4 °F 81% 30.01 in 6.2 mi East 24.2 mph - N/A Snow Light Snow
8:20 PM 33.8 °F 21.6 °F 28.4 °F 81% 30.01 in 5.0 mi East 23.0 mph - N/A Rain , Snow Light Rain
8:50 PM 33.8 °F 21.3 °F 28.4 °F 81% 30.01 in 6.2 mi East 24.2 mph 38.0 mph N/A Rain , Snow Light Snow
9:20 PM 33.8 °F 22.2 °F 28.4 °F 81% 30.04 in 6.2 mi East 20.7 mph 33.4 mph N/A Snow Light Snow
9:50 PM 33.8 °F 21.0 °F 28.4 °F 81% 30.04 in 6.2 mi East 25.3 mph 38.0 mph N/A Snow Light Snow
10:20 PM 35.6 °F 24.0 °F 28.4 °F 75% 30.04 in 6.2 mi East 23.0 mph - N/A Snow Snow Grains
10:50 PM 33.8 °F 21.3 °F 28.4 °F 81% 30.04 in 6.2 mi East 24.2 mph - N/A Snow Snow Grains
11:20 PM 33.8 °F 21.9 °F 28.4 °F 81% 30.04 in 5.0 mi East 21.9 mph - N/A Snow Snow Grains
11:50 PM 33.8 °F 21.3 °F 28.4 °F 81% 30.04 in 6.2 mi East 24.2 mph - N/A Rain Rain